[[{"header":{"parameterUnit":"m.s-1","parameterCategory":1,"la1":30.2991,"la2":30.254,"lo1":-89.0895,"lo2":-89.0444,"dy":0.0017,"dx":0.0017,"nx":28,"ny":28,"refTime":"2025-11-29T03:00:00:Z","depth":0,"parameterNumber":2,"parameterNumberName":"U-component_of_WINDS"},"data":[0,0,0,0,0,0,0,0,0,0,0,0,0,0,0,0,0,0,0,0,0,0,0,0,0,0,0,0,0,0,0,0,0,0,0,0,0,0,0,0,0,0,0,0,0,0,0,0,0,0,0,0,0,0,0,0,0,0,-2.3796,-2.3795,0,-2.3711,-2.371,-2.3709,-2.357,-2.3567,-2.3564,-2.3562,-2.3479,-2.3479,-2.3479,0,0,0,0,0,0,0,0,0,0,0,0,0,-2.3839,-2.3839,-2.3796,-2.3795,-2.3794,-2.3711,-2.371,-2.3709,-2.357,-2.3567,-2.3564,-2.3561,-2.3479,-2.3479,-2.3479,0,0,0,0,0,0,0,0,0,0,0,0,0,-2.3794,-2.3839,-2.3796,-2.3714,-2.3706,-2.3712,-2.371,-2.3709,-2.3571,-2.3567,-2.3563,-2.3559,-2.3479,-2.3479,-2.3479,-2.3559,0,0,-2.348,-2.348,0,0,0,0,0,0,0,0,-2.3797,-2.3793,-2.3727,-2.372,-2.3711,-2.3647,-2.3695,-2.3659,-2.3572,-2.3622,-2.3562,-2.3557,-2.3538,-2.3533,-2.3526,-2.3555,-2.3551,-2.348,-2.348,-2.348,-2.348,0,0,0,0,0,0,0,-2.38,-2.3796,-2.3762,-2.3727,-2.3717,-2.3683,-2.3672,-2.3687,-2.3603,-2.3618,-2.3607,-2.3599,-2.3533,-2.3526,-2.3523,-2.355,-2.348,-2.348,-2.348,-2.3481,-2.3638,-2.3642,0,0,0,0,0,0,-2.3815,-2.3799,-2.3765,-2.376,-2.3745,-2.3685,-2.3673,-2.3671,-2.3602,-2.3588,-2.3602,-2.3593,-2.3527,-2.3523,-2.3519,-2.3607,-2.348,-2.3481,-2.3481,-2.3634,-2.3639,-2.3643,0,0,0,0,0,0,-2.3817,-2.3813,-2.3769,-2.3777,-2.3768,-2.3688,-2.3688,-2.3672,-2.3665,-2.3591,-2.3575,-2.3611,-2.3524,-2.3519,-2.3549,-2.3602,-2.3481,-2.3481,-2.3629,-2.3636,-2.3641,-2.3784,0,0,0,0,0,0,-2.3818,-2.3815,-2.3844,-2.3778,-2.3769,-2.38,-2.3691,-2.3673,-2.3665,-2.3652,-2.3595,-2.3581,-2.3521,-2.355,-2.355,-2.36,-2.3481,-2.3624,-2.3632,-2.3639,-2.3774,-2.3794,-2.3811,0,0,0,0,0,-2.3821,-2.3888,-2.3846,-2.3843,-2.3803,-2.3803,-2.3797,-2.3725,-2.367,-2.3699,-2.3651,-2.3583,-2.3596,-2.3554,-2.3553,-2.3605,-2.3621,-2.363,-2.3639,-2.3766,-2.379,-2.3811,0,0,0,0,0,0,-2.3964,-2.3878,-2.383,-2.3879,-2.3849,-2.3779,-2.3813,-2.3753,-2.3739,-2.3728,-2.3639,-2.3628,-2.3669,-2.364,-2.3594,-2.3677,-2.3598,-2.3607,-2.3695,-2.3717,-2.3736,-2.3742,-2.3481,0,0,0,0,0,-2.4001,-2.4007,-2.3932,-2.3982,-2.397,-2.3895,-2.3892,-2.3839,-2.3805,-2.3792,-2.3746,-2.3717,-2.3713,-2.3714,-2.3707,-2.3769,-2.3754,-2.3804,-2.3822,-2.3838,-2.3847,-2.3876,-2.3897,-2.3673,-2.3673,-2.3673,0,0,-2.4078,-2.4032,-2.4041,-2.401,-2.398,-2.399,-2.3885,-2.3899,-2.3905,-2.3794,-2.3819,-2.3785,-2.3746,-2.3792,-2.381,-2.3769,-2.3905,-2.3849,-2.3862,-2.3863,-2.3888,-2.3909,-2.3928,-2.3679,-2.3678,-2.3677,0,0,-2.4222,-2.4188,-2.4225,-2.4198,-2.4154,-2.4103,-2.4113,-2.4052,-2.4024,-2.4048,-2.3964,-2.397,-2.3968,-2.3943,-2.393,-2.4064,-2.4001,-2.4065,-2.4161,-2.4191,-2.4209,-2.4224,-2.4272,-2.429,-2.4074,-2.4074,-2.4074,0,-2.4323,-2.4333,-2.4253,-2.4272,-2.426,-2.4159,-2.4196,-2.4173,-2.4131,-2.4125,-2.4079,-2.4072,-2.4039,-2.4078,-2.411,-2.4103,-2.4111,-2.4071,-2.4213,-2.4227,-2.424,-2.4284,-2.4303,-2.4082,-2.4081,-2.408,-2.408,0,-2.4459,-2.4467,-2.4503,-2.4462,-2.4455,-2.4484,-2.4408,-2.441,-2.4358,-2.4312,-2.4337,-2.4293,-2.4276,-2.4281,-2.423,-2.4312,-2.4287,-2.4229,-2.4147,-2.4271,-2.4311,-2.4327,-2.4094,-2.4091,-2.4088,-2.4086,0,0,-2.4693,-2.4606,-2.4621,-2.4601,-2.4544,-2.4549,-2.4573,-2.4554,-2.4558,-2.4532,-2.4549,-2.4549,-2.4493,-2.4479,-2.4424,-2.445,-2.4559,-2.4387,-2.4385,-2.4421,-2.4646,-2.469,-2.4711,-2.4516,-2.4519,-2.4521,-2.4649,0,-2.4825,-2.486,-2.4788,-2.4841,-2.4847,-2.475,-2.477,-2.4738,-2.4696,-2.4696,-2.4649,-2.465,-2.4577,-2.4567,-2.4589,-2.4541,-2.4603,-2.4531,-2.4532,-2.4533,-2.4545,-2.4732,-2.478,-2.4902,-2.4664,-2.4666,-2.4668,0,-2.4985,-2.4965,-2.5018,-2.4958,-2.4958,-2.4977,-2.4954,-2.4955,-2.4916,-2.4884,-2.4867,-2.4802,-2.4822,-2.4743,-2.4768,-2.4721,-2.4717,-2.4694,-2.4697,-2.4694,-2.4609,-2.4735,-2.4939,-2.4958,-2.4692,-2.469,-2.4689,0,-2.5149,-2.5136,-2.5165,-2.5151,-2.5082,-2.5098,-2.507,-2.5028,-2.5021,-2.5001,-2.4995,-2.4978,-2.4969,-2.4957,-2.489,-2.4839,-2.4923,-2.4839,-2.4897,-2.4899,-2.4919,-2.4919,-2.5126,-2.4917,-2.4917,-2.4917,-2.4916,0,-2.5305,-2.5341,-2.5238,-2.5257,-2.5294,-2.5211,-2.5251,-2.5213,-2.5176,-2.5185,-2.5101,-2.5112,-2.5021,-2.5022,-2.497,-2.4998,-2.4995,-2.4969,-2.4955,-2.4977,-2.498,-2.4973,-2.4963,-2.4921,-2.492,-2.4919,-2.4919,0,-2.5495,-2.5427,-2.5453,-2.5385,-2.5368,-2.5399,-2.534,-2.5355,-2.5307,-2.532,-2.5318,-2.5243,-2.524,-2.5171,-2.5153,-2.5118,-2.5168,-2.5138,-2.5181,-2.5171,-2.5232,-2.5227,-2.5442,-2.5465,-2.5243,-2.5245,-2.5247,0,-2.5599,-2.5624,-2.5558,-2.5557,-2.5533,-2.5534,-2.5526,-2.5445,-2.5441,-2.5398,-2.5418,-2.5407,-2.5395,-2.5394,-2.5338,-2.5324,-2.5293,-2.5369,-2.529,-2.5311,-2.5293,-2.5292,-2.5294,-2.5386,-2.5389,-2.5391,-2.5393,0,-2.579,-2.5755,-2.5746,-2.5726,-2.5719,-2.5699,-2.5674,-2.5679,-2.559,-2.5589,-2.5584,-2.5574,-2.5555,-2.5546,-2.5522,-2.5493,-2.5429,-2.5418,-2.543,-2.5453,-2.5477,-2.5464,-2.5226,-2.5414,-2.5411,-2.541,-2.5409,-2.5408,-2.5939,-2.5957,-2.5913,-2.5906,-2.5878,-2.5857,-2.5866,-2.5819,-2.5813,-2.5791,-2.5744,-2.5746,-2.5706,-2.5666,-2.5643,-2.5644,-2.5605,-2.5623,-2.5628,-2.5633,-2.5645,-2.5477,-2.5639,-2.5638,-2.5638,-2.5637,-2.5637,0,-2.6125,-2.6092,-2.6086,-2.6053,-2.6048,-2.5987,-2.5956,-2.5955,-2.5958,-2.5926,-2.5915,-2.5909,-2.5899,-2.5842,-2.5826,-2.5837,-2.5807,-2.5836,-2.5834,-2.5828,-2.5681,-2.5672,-2.586,-2.586,-2.586,-2.586,-2.586,-2.586,-2.6221,-2.6247,-2.6207,-2.6219,-2.6185,-2.6186,-2.6173,-2.6153,-2.6127,-2.6124,-2.6115,-2.6077,-2.6035,-2.6015,-2.6003,-2.5986,-2.5984,-2.6023,-2.5997,-2.586,-2.5839,-2.5818,-2.5809,-2.6023,-2.6023,-2.6143,-2.6144,-2.6145]},{"header":{"parameterUnit":"m.s-1","parameterCategory":1,"la1":30.2991,"la2":30.254,"lo1":-89.0895,"lo2":-89.0444,"dy":0.0017,"dx":0.0017,"nx":28,"ny":28,"refTime":"2025-11-29T03:00:00:Z","depth":0,"parameterNumber":3,"parameterNumberName":"V-component_of_WINDS"},"data":[0,0,0,0,0,0,0,0,0,0,0,0,0,0,0,0,0,0,0,0,0,0,0,0,0,0,0,0,0,0,0,0,0,0,0,0,0,0,0,0,0,0,0,0,0,0,0,0,0,0,0,0,0,0,0,0,0,0,-2.8018,-2.8019,0,-2.8072,-2.8073,-2.8073,-2.8069,-2.8068,-2.8067,-2.8066,-2.8117,-2.8119,-2.8121,0,0,0,0,0,0,0,0,0,0,0,0,0,-2.7907,-2.7909,-2.8018,-2.8019,-2.802,-2.8072,-2.8073,-2.8073,-2.8069,-2.8068,-2.8067,-2.8066,-2.8117,-2.8119,-2.8122,0,0,0,0,0,0,0,0,0,0,0,0,0,-2.7957,-2.791,-2.8018,-2.8024,-2.8025,-2.8072,-2.8073,-2.8074,-2.8069,-2.8068,-2.8067,-2.8066,-2.8116,-2.8119,-2.8122,-2.8166,0,0,-2.8132,-2.8133,0,0,0,0,0,0,0,0,-2.7955,-2.7961,-2.8022,-2.8023,-2.8025,-2.8063,-2.8052,-2.8104,-2.8069,-2.8052,-2.8066,-2.8065,-2.81,-2.8104,-2.8117,-2.8168,-2.817,-2.8132,-2.8134,-2.8135,-2.8136,0,0,0,0,0,0,0,-2.7951,-2.7959,-2.8039,-2.8023,-2.8025,-2.8022,-2.8028,-2.8062,-2.8082,-2.8053,-2.8053,-2.806,-2.81,-2.8114,-2.8118,-2.8171,-2.8132,-2.8135,-2.8137,-2.8138,-2.826,-2.8261,0,0,0,0,0,0,-2.7947,-2.7956,-2.8038,-2.8041,-2.7986,-2.8025,-2.8032,-2.8051,-2.8082,-2.8085,-2.8061,-2.806,-2.8109,-2.8114,-2.812,-2.8173,-2.8135,-2.8138,-2.814,-2.8259,-2.826,-2.8262,0,0,0,0,0,0,-2.7945,-2.7954,-2.8035,-2.7999,-2.8009,-2.8028,-2.8051,-2.8053,-2.8067,-2.8087,-2.809,-2.8072,-2.8108,-2.8115,-2.8154,-2.8174,-2.8139,-2.8142,-2.8257,-2.8259,-2.8261,-2.8279,0,0,0,0,0,0,-2.7941,-2.7953,-2.7971,-2.7999,-2.8011,-2.8071,-2.8052,-2.8055,-2.8073,-2.8071,-2.8098,-2.8101,-2.8108,-2.815,-2.8158,-2.8178,-2.8145,-2.8255,-2.8258,-2.826,-2.8277,-2.8281,-2.8285,0,0,0,0,0,-2.7937,-2.7973,-2.7972,-2.7982,-2.8034,-2.8072,-2.8078,-2.8087,-2.8074,-2.8092,-2.8105,-2.81,-2.8171,-2.8154,-2.8163,-2.8184,-2.8254,-2.8257,-2.826,-2.8275,-2.828,-2.8285,0,0,0,0,0,0,-2.7946,-2.7977,-2.7976,-2.8022,-2.8045,-2.8071,-2.8093,-2.8092,-2.8117,-2.8115,-2.8123,-2.8129,-2.8168,-2.818,-2.816,-2.8228,-2.8211,-2.8216,-2.8219,-2.8224,-2.8229,-2.8225,-2.8147,0,0,0,0,0,-2.7953,-2.7983,-2.8008,-2.8046,-2.8058,-2.8074,-2.809,-2.8095,-2.8118,-2.8127,-2.8143,-2.8164,-2.8191,-2.8208,-2.8234,-2.8278,-2.8284,-2.8298,-2.8302,-2.8305,-2.8309,-2.8333,-2.834,-2.8272,-2.8272,-2.8272,0,0,-2.7968,-2.7989,-2.8007,-2.8049,-2.8066,-2.8096,-2.8081,-2.8113,-2.8135,-2.8131,-2.8169,-2.8182,-2.8206,-2.8248,-2.8267,-2.8259,-2.8329,-2.8309,-2.8312,-2.8314,-2.8337,-2.8343,-2.8349,-2.8274,-2.8273,-2.8273,0,0,-2.8011,-2.803,-2.8064,-2.8083,-2.811,-2.8121,-2.8129,-2.8155,-2.8164,-2.8203,-2.8201,-2.8226,-2.8272,-2.8289,-2.8304,-2.8353,-2.835,-2.8361,-2.8384,-2.8407,-2.8412,-2.8417,-2.8434,-2.844,-2.8365,-2.8365,-2.8365,0,-2.8026,-2.8072,-2.8081,-2.8114,-2.8132,-2.8131,-2.8165,-2.8182,-2.8216,-2.8227,-2.8218,-2.8276,-2.8292,-2.8338,-2.835,-2.8362,-2.8371,-2.8358,-2.8411,-2.8416,-2.842,-2.8437,-2.8443,-2.8366,-2.8366,-2.8366,-2.8366,0,-2.8089,-2.812,-2.8144,-2.8179,-2.8199,-2.8232,-2.8245,-2.8264,-2.8267,-2.8278,-2.8317,-2.8336,-2.8366,-2.8377,-2.8379,-2.8423,-2.8417,-2.841,-2.8392,-2.8428,-2.8444,-2.845,-2.8368,-2.8368,-2.8367,-2.8367,0,0,-2.8138,-2.8178,-2.8187,-2.8202,-2.8233,-2.8256,-2.8289,-2.8319,-2.8335,-2.8359,-2.8385,-2.8424,-2.8418,-2.8434,-2.8438,-2.8459,-2.8496,-2.8448,-2.8449,-2.8456,-2.8545,-2.8551,-2.8558,-2.8494,-2.8495,-2.8496,-2.8543,0,-2.8184,-2.8243,-2.8252,-2.8303,-2.8332,-2.8332,-2.836,-2.8381,-2.8392,-2.8417,-2.8428,-2.8456,-2.8445,-2.8455,-2.8475,-2.8487,-2.8514,-2.8484,-2.8518,-2.8519,-2.8512,-2.8566,-2.8572,-2.8615,-2.8549,-2.855,-2.8551,0,-2.8245,-2.8272,-2.8326,-2.8353,-2.8365,-2.839,-2.8419,-2.8443,-2.8466,-2.8473,-2.8492,-2.8493,-2.8525,-2.8507,-2.8551,-2.853,-2.8544,-2.8553,-2.8554,-2.8558,-2.8537,-2.8571,-2.8629,-2.8636,-2.8561,-2.856,-2.8559,0,-2.8275,-2.8325,-2.8364,-2.8377,-2.8409,-2.8427,-2.844,-2.8463,-2.848,-2.8505,-2.8516,-2.8543,-2.8558,-2.8579,-2.8587,-2.8573,-2.863,-2.8613,-2.8636,-2.8635,-2.8647,-2.8647,-2.8709,-2.8657,-2.8657,-2.8657,-2.8657,0,-2.8325,-2.8359,-2.8378,-2.8402,-2.8439,-2.8449,-2.8484,-2.8497,-2.8517,-2.8542,-2.8543,-2.8567,-2.8577,-2.8601,-2.8608,-2.8643,-2.865,-2.8655,-2.8656,-2.8655,-2.8654,-2.8664,-2.8661,-2.8658,-2.8658,-2.8658,-2.8657,0,-2.8366,-2.838,-2.8422,-2.845,-2.8457,-2.8483,-2.8506,-2.8528,-2.8539,-2.8571,-2.8579,-2.8596,-2.8625,-2.8635,-2.867,-2.8675,-2.8715,-2.8714,-2.8708,-2.8708,-2.873,-2.8728,-2.8801,-2.8811,-2.8752,-2.8753,-2.8754,0,-2.8397,-2.8422,-2.8453,-2.8471,-2.8486,-2.8514,-2.8533,-2.8543,-2.8562,-2.859,-2.8609,-2.8639,-2.8663,-2.8709,-2.8723,-2.875,-2.8749,-2.8773,-2.8753,-2.8751,-2.8749,-2.8747,-2.875,-2.8776,-2.8777,-2.8777,-2.8778,0,-2.845,-2.8456,-2.8483,-2.8513,-2.8536,-2.8559,-2.8582,-2.8596,-2.861,-2.8631,-2.8661,-2.868,-2.8717,-2.8745,-2.8773,-2.8785,-2.8784,-2.8784,-2.8791,-2.879,-2.8785,-2.8788,-2.8718,-2.8782,-2.8782,-2.8782,-2.8781,-2.8781,-2.8486,-2.8509,-2.8535,-2.8565,-2.8583,-2.8605,-2.8628,-2.8642,-2.8668,-2.8699,-2.8703,-2.8736,-2.8758,-2.8795,-2.8809,-2.8833,-2.8827,-2.8836,-2.8839,-2.8841,-2.8843,-2.8781,-2.8838,-2.8838,-2.8838,-2.8838,-2.8838,0,-2.854,-2.8556,-2.8584,-2.8617,-2.864,-2.8638,-2.8663,-2.8683,-2.8712,-2.8733,-2.8757,-2.8792,-2.882,-2.8837,-2.8864,-2.8881,-2.8881,-2.8888,-2.8887,-2.8889,-2.8847,-2.8838,-2.8888,-2.8888,-2.8887,-2.8887,-2.8887,-2.8887,-2.857,-2.8609,-2.8618,-2.8665,-2.8681,-2.8714,-2.8729,-2.8748,-2.8765,-2.8804,-2.8828,-2.8839,-2.8858,-2.8888,-2.8913,-2.8917,-2.8927,-2.8934,-2.8938,-2.8898,-2.8892,-2.8888,-2.888,-2.8936,-2.8937,-2.8978,-2.8978,-2.8979]}]]